This is the latest recevied weather packets stored in our database for station/object KO4FR. If no packets are shown the sender has not sent any weather packets the latest 1 day(s).
| Time | Temp. | Humidity | Pressure | Rain* | Wind** | Luminosity | Snow |
|---|---|---|---|---|---|---|---|
| 1777999501 | 26.11° C | 36% | 1015.8 hPa | 0 mm | 0.45 m/s, 88° | - | - |
| 1777999202 | 26.11° C | 33% | 1015.7 hPa | 0 mm | 0 m/s | - | - |
| 1777998902 | 26.11° C | 33% | 1015.7 hPa | 0 mm | 0.45 m/s, 138° | - | - |
| 1777998600 | 26.11° C | 35% | 1015.7 hPa | 0 mm | 0 m/s | - | - |
| 1777998300 | 26.11° C | 35% | 1015.7 hPa | 0 mm | 0 m/s | - | - |
| 1777998000 | 25.56° C | 36% | 1015.8 hPa | 0 mm | 0 m/s | - | - |
| 1777997700 | 25.56° C | 36% | 1015.8 hPa | 0 mm | 0.45 m/s, 86° | - | - |
| 1777997401 | 26.11° C | 37% | 1016 hPa | 0 mm | 0 m/s | - | - |
| 1777997101 | 26.11° C | 38% | 1016.2 hPa | 0 mm | 0.45 m/s, 134° | - | - |
| 1777996801 | 25.56° C | 38% | 1016.1 hPa | 0 mm | 0 m/s | - | - |
| 1777996500 | 25° C | 41% | 1016.3 hPa | 0 mm | 1.34 m/s, 80° | - | - |
| 1777996201 | 25° C | 40% | 1016.4 hPa | 0 mm | 0 m/s | - | - |
| 1777995900 | 25° C | 40% | 1016.4 hPa | 0 mm | 1.34 m/s, 130° | - | - |
| 1777995601 | 25° C | 40% | 1016.5 hPa | 0 mm | 0 m/s | - | - |
| 1777995300 | 25° C | 41% | 1016.5 hPa | 0 mm | 0 m/s | - | - |
| 1777995001 | 24.44° C | 44% | 1016.5 hPa | 0 mm | 0 m/s | - | - |
| 1777994700 | 24.44° C | 44% | 1016.6 hPa | 0 mm | 0 m/s | - | - |
| 1777994400 | 23.89° C | 44% | 1016.6 hPa | 0 mm | 0 m/s | - | - |
| 1777994100 | 23.89° C | 44% | 1016.6 hPa | 0 mm | 0.45 m/s, 123° | - | - |
| 1777993800 | 23.89° C | 46% | 1016.6 hPa | 0 mm | 0 m/s | - | - |
| 1777993501 | 23.89° C | 46% | 1016.5 hPa | 0 mm | 0.45 m/s, 126° | - | - |
| 1777993200 | 23.33° C | 46% | 1016.5 hPa | 0 mm | 0 m/s | - | - |
| 1777992900 | 23.33° C | 48% | 1016.5 hPa | 0 mm | 0 m/s | - | - |
| 1777992600 | 22.78° C | 50% | 1016.3 hPa | 0 mm | 0 m/s | - | - |
| 1777992318 | 22.78° C | 48% | 1016.2 hPa | 0 mm | 0 m/s | - | - |
* Rain latest hour (hover to see other rain measurements)
** Current wind speed in m/s (hover to see current wind gust speed)